QPF
0.01 0.01 0.01 0.01 0.01 0.02 0.03 0.05 0.06 0.04 0.02 0.01 0.02 0.03 0.02 0.02 0.03 0.04 0.06 0.08 0.09 0.10 0.10 0.08 0.06 0.04 0.04 0.11 0.27 0.50 0.71 0.79 0.70 0.53 0.37 0.25 0.21 0.19
0.02 0.02 0.01 0.01 0.01 0.02 0.02 0.03 0.04 0.06 0.04 0.02 0.01 0.02 0.02 0.02 0.02 0.02 0.04 0.07 0.09 0.11 0.12 0.10 0.08 0.05 0.04 0.05 0.11 0.26 0.49 0.67 0.73 0.69 0.54 0.40 0.29 0.24
0.03 0.03 0.02 0.02 0.03 0.03 0.03 0.03 0.04 0.05 0.05 0.02 0.01 0.01 0.02 0.02 0.02 0.02 0.02 0.04 0.07 0.09 0.12 0.12 0.10 0.07 0.04 0.04 0.05 0.11 0.27 0.47 0.61 0.69 0.68 0.55 0.40 0.28
0.05 0.04 0.04 0.04 0.04 0.04 0.04 0.04 0.03 0.04 0.05 0.03 0.01 0.01 0.02 0.02 0.01 0.02 0.01 0.02 0.05 0.07 0.11 0.13 0.12 0.09 0.06 0.04 0.03 0.06 0.13 0.26 0.41 0.53 0.64 0.62 0.47 0.34
0.05 0.06 0.06 0.07 0.08 0.06 0.05 0.04 0.03 0.03 0.03 0.03 0.02 0.01 0.01 0.02 0.01 0.01 0.01 0.02 0.04 0.06 0.08 0.12 0.14 0.11 0.08 0.05 0.03 0.04 0.06 0.12 0.21 0.35 0.47 0.58 0.53 0.40
0.05 0.06 0.07 0.09 0.11 0.11 0.09 0.05 0.04 0.03 0.03 0.03 0.02 0.01 0.01 0.02 0.02 0.02 0.01 0.02 0.04 0.05 0.07 0.09 0.11 0.13 0.10 0.07 0.03 0.02 0.03 0.07 0.13 0.23 0.34 0.43 0.54 0.47
0.03 0.04 0.05 0.07 0.09 0.10 0.09 0.07 0.05 0.04 0.02 0.02 0.01 0.01 0.01 0.02 0.02 0.02 0.02 0.02 0.05 0.06 0.07 0.07 0.09 0.10 0.11 0.09 0.05 0.03 0.03 0.04 0.07 0.13 0.24 0.34 0.43 0.50
0.03 0.03 0.03 0.04 0.04 0.03 0.03 0.04 0.04 0.04 0.03 0.02 0.02 0.02 0.02 0.02 0.02 0.02 0.02 0.03 0.04 0.06 0.08 0.08 0.08 0.09 0.10 0.10 0.07 0.03 0.02 0.02 0.04 0.07 0.14 0.23 0.32 0.43
0.02 0.02 0.02 0.02 0.02 0.01 0.00 0.00 0.01 0.01 0.02 0.02 0.02 0.02 0.02 0.02 0.02 0.02 0.02 0.03 0.04 0.06 0.07 0.10 0.10 0.10 0.09 0.09 0.08 0.04 0.02 0.02 0.03 0.04 0.07 0.14 0.22 0.32
0.02 0.02 0.02 0.02 0.02 0.01 0.00 0.00 0.00 0.00 0.01 0.01 0.02 0.02 0.02 0.02 0.02 0.02 0.02 0.02 0.04 0.05 0.06 0.10 0.11 0.09 0.09 0.07 0.06 0.04 0.03 0.02 0.02 0.03 0.05 0.08 0.14 0.23
0.02 0.02 0.02 0.01 0.02 0.01 0.00 0.00 0.00 0.00 0.00 0.00 0.00 0.00 0.00 0.01 0.01 0.01 0.01 0.01 0.03 0.05 0.05 0.08 0.11 0.10 0.10 0.08 0.06 0.05 0.03 0.02 0.02 0.02 0.03 0.05 0.10 0.17
0.01 0.01 0.01 0.01 0.01 0.01 0.00 0.00 0.00 0.00 0.00 0.00 0.00 0.00 0.00 0.00 0.01 0.01 0.01 0.02 0.03 0.05 0.06 0.07 0.09 0.11 0.11 0.09 0.07 0.05 0.03 0.03 0.03 0.02 0.03 0.05 0.07 0.10
0.00 0.00 0.00 0.00 0.00 0.00 0.00 0.00 0.01 0.00 0.00 0.00 0.00 0.00 0.00 0.00 0.00 0.01 0.01 0.02 0.03 0.03 0.06 0.07 0.08 0.10 0.10 0.09 0.07 0.06 0.04 0.03 0.02 0.03 0.03 0.05 0.07 0.07
0.00 0.00 0.00 0.00 0.00 0.00 0.00 0.00 0.00 0.00 0.00 0.00 0.00 0.00 0.00 0.00 0.00 0.01 0.01 0.02 0.03 0.03 0.05 0.07 0.07 0.09 0.10 0.07 0.05 0.06 0.06 0.05 0.03 0.03 0.03 0.05 0.08 0.09
0.01 0.00 0.00 0.00 0.00 0.00 0.00 0.00 0.00 0.00 0.00 0.00 0.00 0.00 0.00 0.00 0.00 0.01 0.01 0.01 0.02 0.03 0.04 0.05 0.06 0.09 0.10 0.09 0.05 0.05 0.07 0.08 0.06 0.03 0.03 0.03 0.05 0.05
0.01 0.00 0.00 0.00 0.00 0.00 0.00 0.00 0.00 0.00 0.00 0.01 0.01 0.01 0.01 0.00 0.00 0.01 0.01 0.01 0.02 0.03 0.04 0.04 0.05 0.08 0.11 0.11 0.08 0.05 0.05 0.08 0.09 0.05 0.03 0.03 0.03 0.03
0.02 0.00 0.00 0.00 0.00 0.00 0.00 0.00 0.00 0.00 0.00 0.01 0.01 0.01 0.01 0.01 0.01 0.01 0.01 0.01 0.02 0.04 0.04 0.05 0.07 0.09 0.13 0.15 0.15 0.10 0.06 0.06 0.07 0.06 0.04 0.04 0.05 0.05
0.02 0.01 0.00 0.00 0.00 0.00 0.00 0.00 0.00 0.00 0.00 0.01 0.01 0.01 0.01 0.01 0.01 0.01 0.01 0.02 0.03 0.04 0.05 0.06 0.08 0.11 0.15 0.20 0.22 0.17 0.11 0.08 0.08 0.07 0.04 0.03 0.05 0.07
0.01 0.00 0.00 0.00 0.00 0.00 0.00 0.00 0.00 0.00 0.00 0.01 0.01 0.01 0.01 0.01 0.01 0.01 0.02 0.02 0.03 0.04 0.06 0.07 0.08 0.12 0.16 0.21 0.26 0.23 0.16 0.11 0.11 0.11 0.08 0.04 0.04 0.07
0.01 0.01 0.01 0.01 0.01 0.00 0.00 0.00 0.00 0.00 0.00 0.00 0.01 0.01 0.01 0.01 0.01 0.01 0.02 0.03 0.03 0.04 0.06 0.07 0.09 0.12 0.14 0.15 0.20 0.27 0.24 0.15 0.11 0.13 0.12 0.09 0.07 0.08
0.01 0.02 0.01 0.01 0.01 0.01 0.00 0.00 0.00 0.00 0.00 0.00 0.01 0.01 0.01 0.01 0.02 0.02 0.02 0.03 0.03 0.04 0.06 0.09 0.12 0.13 0.15 0.14 0.16 0.24 0.30 0.27 0.18 0.13 0.12 0.10 0.08 0.08
0.02 0.02 0.02 0.02 0.02 0.01 0.01 0.00 0.00 0.00 0.00 0.00 0.00 0.01 0.01 0.01 0.02 0.02 0.02 0.03 0.03 0.04 0.06 0.09 0.11 0.15 0.19 0.18 0.19 0.22 0.27 0.33 0.32 0.24 0.16 0.09 0.05 0.05
0.03 0.03 0.03 0.02 0.02 0.02 0.01 0.01 0.00 0.00 0.00 0.00 0.00 0.00 0.01 0.01 0.01 0.02 0.02 0.03 0.04 0.05 0.06 0.08 0.11 0.15 0.21 0.22 0.22 0.22 0.23 0.25 0.27 0.27 0.30 0.21 0.10 0.06
MSLP
1019.42 1019.08 1018.80 1018.51 1018.12 1017.55 1016.76 1015.76 1014.59 1013.30 1012.00 1010.76 1009.68 1008.78 1008.09 1007.57 1007.16 1006.79 1006.39 1005.90 1005.30 1004.58 1003.80 1003.02 1002.30 1001.74 1001.40 1001.32 1001.52 1001.97 1002.65 1003.49 1004.45 1005.46 1006.48 1007.47 1008.41 1009.31
1018.54 1018.19 1017.93 1017.68 1017.35 1016.85 1016.16 1015.26 1014.17 1012.97 1011.73 1010.55 1009.49 1008.60 1007.91 1007.37 1006.95 1006.56 1006.15 1005.66 1005.06 1004.36 1003.59 1002.81 1002.10 1001.53 1001.16 1001.05 1001.20 1001.60 1002.22 1003.01 1003.91 1004.88 1005.87 1006.84 1007.78 1008.67
1017.87 1017.46 1017.17 1016.91 1016.60 1016.17 1015.56 1014.76 1013.79 1012.71 1011.59 1010.49 1009.50 1008.66 1007.97 1007.42 1006.96 1006.53 1006.07 1005.54 1004.90 1004.18 1003.41 1002.63 1001.93 1001.36 1001.00 1000.86 1000.98 1001.34 1001.92 1002.65 1003.51 1004.43 1005.38 1006.33 1007.24 1008.12
1017.51 1017.03 1016.67 1016.37 1016.04 1015.63 1015.08 1014.38 1013.54 1012.60 1011.61 1010.65 1009.75 1008.97 1008.30 1007.73 1007.22 1006.72 1006.18 1005.58 1004.89 1004.12 1003.32 1002.54 1001.84 1001.27 1000.90 1000.76 1000.86 1001.19 1001.72 1002.41 1003.21 1004.09 1005.00 1005.91 1006.81 1007.67
1017.53 1016.97 1016.52 1016.14 1015.77 1015.35 1014.84 1014.22 1013.49 1012.68 1011.84 1011.00 1010.21 1009.50 1008.86 1008.27 1007.71 1007.14 1006.52 1005.82 1005.05 1004.23 1003.38 1002.57 1001.85 1001.28 1000.90 1000.74 1000.81 1001.10 1001.58 1002.22 1002.98 1003.81 1004.69 1005.57 1006.45 1007.30
1017.87 1017.24 1016.71 1016.26 1015.82 1015.37 1014.86 1014.29 1013.64 1012.95 1012.23 1011.51 1010.82 1010.18 1009.57 1008.98 1008.38 1007.74 1007.04 1006.27 1005.42 1004.52 1003.62 1002.77 1002.02 1001.41 1001.00 1000.80 1000.83 1001.06 1001.49 1002.07 1002.77 1003.56 1004.40 1005.26 1006.13 1006.98
1018.44 1017.77 1017.17 1016.64 1016.14 1015.64 1015.12 1014.56 1013.96 1013.34 1012.71 1012.09 1011.49 1010.91 1010.34 1009.76 1009.14 1008.46 1007.70 1006.86 1005.95 1005.00 1004.04 1003.14 1002.34 1001.69 1001.22 1000.96 1000.91 1001.07 1001.41 1001.92 1002.55 1003.29 1004.09 1004.94 1005.80 1006.66
1019.08 1018.40 1017.77 1017.19 1016.63 1016.08 1015.52 1014.95 1014.37 1013.79 1013.21 1012.66 1012.12 1011.59 1011.06 1010.50 1009.89 1009.19 1008.42 1007.55 1006.60 1005.61 1004.62 1003.67 1002.82 1002.10 1001.55 1001.20 1001.06 1001.11 1001.35 1001.77 1002.32 1002.99 1003.76 1004.58 1005.45 1006.32
1019.62 1018.97 1018.35 1017.75 1017.16 1016.57 1015.97 1015.38 1014.78 1014.21 1013.65 1013.12 1012.62 1012.13 1011.63 1011.11 1010.52 1009.85 1009.09 1008.24 1007.30 1006.31 1005.30 1004.32 1003.42 1002.64 1002.00 1001.54 1001.28 1001.21 1001.33 1001.63 1002.09 1002.69 1003.40 1004.20 1005.05 1005.94
1019.94 1019.35 1018.77 1018.19 1017.60 1016.99 1016.37 1015.75 1015.13 1014.54 1013.97 1013.44 1012.95 1012.48 1012.02 1011.53 1010.99 1010.37 1009.66 1008.86 1007.96 1007.00 1006.01 1005.03 1004.09 1003.25 1002.53 1001.98 1001.60 1001.40 1001.39 1001.57 1001.92 1002.43 1003.07 1003.83 1004.67 1005.56
1019.98 1019.48 1018.97 1018.44 1017.88 1017.29 1016.67 1016.03 1015.39 1014.76 1014.17 1013.62 1013.12 1012.65 1012.21 1011.75 1011.26 1010.70 1010.07 1009.34 1008.51 1007.62 1006.67 1005.71 1004.77 1003.90 1003.12 1002.48 1002.00 1001.69 1001.57 1001.63 1001.87 1002.29 1002.86 1003.57 1004.38 1005.26
1019.76 1019.35 1018.93 1018.48 1017.99 1017.44 1016.84 1016.20 1015.55 1014.90 1014.28 1013.70 1013.17 1012.69 1012.25 1011.81 1011.36 1010.87 1010.30 1009.65 1008.91 1008.10 1007.22 1006.31 1005.40 1004.53 1003.73 1003.04 1002.49 1002.10 1001.88 1001.85 1002.00 1002.34 1002.83 1003.48 1004.25 1005.12
1019.35 1019.04 1018.71 1018.35 1017.94 1017.45 1016.90 1016.29 1015.65 1014.99 1014.34 1013.74 1013.18 1012.68 1012.22 1011.78 1011.35 1010.89 1010.38 1009.81 1009.15 1008.41 1007.61 1006.77 1005.92 1005.08 1004.30 1003.61 1003.04 1002.62 1002.35 1002.27 1002.36 1002.63 1003.06 1003.65 1004.37 1005.20
1018.86 1018.62 1018.38 1018.12 1017.79 1017.39 1016.90 1016.34 1015.73 1015.08 1014.43 1013.80 1013.21 1012.67 1012.19 1011.73 1011.29 1010.85 1010.37 1009.84 1009.24 1008.57 1007.85 1007.08 1006.30 1005.53 1004.81 1004.17 1003.63 1003.22 1002.97 1002.87 1002.94 1003.17 1003.57 1004.11 1004.79 1005.58
1018.40 1018.21 1018.03 1017.84 1017.60 1017.28 1016.88 1016.38 1015.81 1015.20 1014.56 1013.92 1013.32 1012.75 1012.22 1011.73 1011.27 1010.80 1010.32 1009.80 1009.23 1008.61 1007.95 1007.25 1006.56 1005.87 1005.24 1004.68 1004.22 1003.88 1003.68 1003.62 1003.71 1003.95 1004.33 1004.85 1005.49 1006.24
1018.03 1017.86 1017.72 1017.59 1017.41 1017.17 1016.84 1016.42 1015.92 1015.36 1014.76 1014.14 1013.53 1012.93 1012.37 1011.84 1011.33 1010.81 1010.29 1009.75 1009.18 1008.58 1007.96 1007.33 1006.71 1006.12 1005.59 1005.14 1004.79 1004.56 1004.45 1004.47 1004.63 1004.91 1005.30 1005.82 1006.44 1007.15
1017.79 1017.61 1017.48 1017.37 1017.24 1017.05 1016.80 1016.46 1016.04 1015.55 1015.00 1014.42 1013.83 1013.23 1012.65 1012.07 1011.50 1010.94 1010.36 1009.78 1009.18 1008.57 1007.97 1007.37 1006.82 1006.32 1005.89 1005.56 1005.34 1005.23 1005.24 1005.37 1005.61 1005.96 1006.41 1006.94 1007.57 1008.26
1017.68 1017.46 1017.31 1017.19 1017.07 1016.92 1016.73 1016.46 1016.12 1015.72 1015.25 1014.74 1014.19 1013.61 1013.03 1012.43 1011.81 1011.19 1010.56 1009.92 1009.28 1008.65 1008.03 1007.46 1006.95 1006.53 1006.19 1005.97 1005.87 1005.89 1006.02 1006.27 1006.62 1007.05 1007.56 1008.14 1008.78 1009.48
1017.66 1017.39 1017.18 1017.03 1016.90 1016.77 1016.61 1016.41 1016.15 1015.84 1015.47 1015.04 1014.56 1014.04 1013.47 1012.87 1012.24 1011.58 1010.90 1010.21 1009.52 1008.85 1008.23 1007.66 1007.18 1006.81 1006.55 1006.42 1006.42 1006.55 1006.80 1007.16 1007.60 1008.13 1008.71 1009.35 1010.03 1010.74
1017.69 1017.34 1017.07 1016.86 1016.70 1016.56 1016.42 1016.28 1016.10 1015.89 1015.61 1015.29 1014.90 1014.45 1013.93 1013.36 1012.73 1012.06 1011.35 1010.63 1009.91 1009.22 1008.58 1008.02 1007.56 1007.22 1007.02 1006.96 1007.04 1007.26 1007.60 1008.04 1008.58 1009.18 1009.83 1010.53 1011.25 1011.99
1017.72 1017.30 1016.95 1016.67 1016.45 1016.29 1016.17 1016.07 1015.97 1015.84 1015.67 1015.45 1015.17 1014.80 1014.36 1013.84 1013.25 1012.59 1011.89 1011.16 1010.43 1009.73 1009.09 1008.54 1008.10 1007.80 1007.63 1007.62 1007.76 1008.04 1008.44 1008.95 1009.55 1010.21 1010.92 1011.66 1012.42 1013.19
1017.74 1017.23 1016.80 1016.44 1016.17 1015.98 1015.86 1015.79 1015.75 1015.70 1015.64 1015.53 1015.35 1015.09 1014.73 1014.28 1013.74 1013.13 1012.46 1011.75 1011.04 1010.36 1009.75 1009.22 1008.81 1008.54 1008.41 1008.44 1008.61 1008.93 1009.37 1009.91 1010.54 1011.24 1011.98 1012.75 1013.54 1014.33
1017.71 1017.12 1016.60 1016.18 1015.85 1015.63 1015.51 1015.46 1015.47 1015.50 1015.53 1015.52 1015.45 1015.28 1015.02 1014.66 1014.19 1013.64 1013.02 1012.36 1011.71 1011.07 1010.50 1010.02 1009.66 1009.43 1009.34 1009.40 1009.60 1009.94 1010.39 1010.95 1011.58 1012.29 1013.04 1013.82 1014.61 1015.42
Thickness
5121 5124 5131 5142 5154 5166 5179 5192 5206 5225 5246 5264 5280 5296 5312 5332 5354 5377 5403 5430 5456 5483 5508 5532 5555 5575 5594 5612 5627 5640 5648 5654 5658 5661 5663 5665 5666 5668
5121 5124 5131 5140 5151 5163 5175 5188 5201 5214 5233 5254 5270 5285 5302 5321 5341 5364 5389 5415 5442 5468 5493 5517 5539 5561 5581 5598 5614 5628 5638 5645 5649 5653 5655 5657 5660 5662
5125 5128 5134 5141 5151 5161 5173 5185 5198 5211 5226 5245 5261 5277 5294 5311 5331 5353 5377 5403 5429 5454 5479 5502 5525 5546 5566 5585 5601 5615 5626 5634 5640 5644 5648 5649 5652 5654
5130 5133 5139 5145 5154 5163 5173 5184 5196 5209 5221 5237 5254 5269 5285 5301 5321 5343 5367 5392 5416 5442 5466 5489 5511 5532 5552 5571 5588 5603 5615 5623 5631 5636 5639 5642 5645 5648
5134 5137 5143 5149 5157 5166 5175 5184 5195 5207 5218 5231 5246 5261 5276 5292 5312 5334 5357 5381 5405 5431 5454 5477 5499 5520 5539 5558 5574 5590 5603 5614 5622 5629 5632 5635 5638 5642
5137 5141 5146 5152 5158 5166 5175 5183 5193 5204 5215 5227 5240 5254 5268 5284 5302 5322 5346 5369 5394 5420 5443 5465 5487 5507 5526 5545 5563 5580 5592 5602 5612 5620 5625 5629 5632 5636
5140 5143 5147 5152 5158 5165 5172 5179 5188 5199 5210 5221 5234 5246 5259 5274 5290 5309 5331 5356 5383 5406 5429 5453 5477 5498 5517 5533 5548 5565 5579 5591 5602 5611 5618 5623 5628 5631
5141 5144 5148 5152 5157 5163 5168 5175 5182 5190 5201 5212 5224 5235 5248 5263 5279 5298 5318 5340 5370 5394 5413 5440 5464 5485 5504 5521 5537 5553 5567 5580 5592 5602 5610 5617 5622 5626
5142 5144 5147 5151 5155 5160 5165 5171 5178 5185 5193 5202 5213 5224 5239 5253 5270 5290 5308 5327 5351 5376 5396 5428 5453 5474 5492 5510 5525 5540 5556 5569 5581 5593 5601 5608 5614 5619
5143 5143 5145 5149 5154 5158 5163 5169 5176 5182 5189 5198 5208 5219 5231 5246 5262 5279 5298 5320 5346 5367 5385 5412 5438 5461 5481 5499 5515 5530 5544 5558 5570 5582 5592 5599 5605 5610
5145 5144 5145 5148 5152 5156 5161 5167 5174 5181 5188 5196 5206 5216 5228 5242 5257 5274 5293 5314 5339 5361 5376 5397 5422 5447 5468 5487 5503 5518 5533 5547 5560 5571 5581 5589 5596 5601
5150 5147 5146 5147 5150 5154 5159 5165 5172 5179 5187 5196 5206 5216 5227 5240 5253 5267 5283 5301 5322 5347 5365 5383 5406 5429 5455 5472 5490 5506 5521 5535 5549 5561 5571 5579 5587 5593
5154 5150 5148 5147 5148 5151 5155 5161 5167 5175 5184 5193 5204 5215 5226 5238 5251 5264 5278 5293 5311 5333 5352 5369 5391 5413 5439 5459 5477 5492 5509 5524 5537 5549 5559 5569 5577 5586
5158 5153 5150 5148 5148 5149 5153 5158 5164 5172 5181 5191 5201 5212 5223 5235 5248 5262 5277 5292 5307 5324 5342 5356 5376 5398 5421 5446 5465 5480 5495 5511 5525 5537 5547 5556 5565 5575
5163 5156 5152 5149 5148 5150 5152 5156 5162 5169 5177 5186 5196 5206 5217 5230 5245 5261 5277 5293 5308 5324 5339 5352 5368 5387 5406 5430 5451 5466 5481 5493 5509 5522 5533 5543 5553 5563
5168 5161 5155 5152 5150 5150 5152 5156 5160 5165 5171 5180 5189 5201 5213 5227 5242 5257 5273 5290 5308 5324 5338 5351 5366 5381 5400 5418 5437 5454 5467 5479 5492 5506 5516 5525 5535 5546
5172 5165 5160 5156 5154 5153 5153 5155 5158 5163 5169 5176 5185 5196 5209 5223 5237 5252 5268 5285 5302 5318 5333 5347 5361 5375 5389 5406 5424 5440 5454 5466 5478 5492 5502 5508 5514 5525
5175 5169 5164 5159 5156 5154 5153 5154 5157 5160 5165 5172 5181 5192 5204 5217 5232 5247 5263 5279 5295 5310 5325 5339 5354 5370 5383 5395 5406 5424 5440 5452 5464 5477 5488 5494 5496 5503
5178 5172 5167 5161 5158 5155 5154 5154 5156 5158 5162 5169 5178 5188 5199 5212 5226 5241 5257 5273 5289 5303 5318 5332 5347 5363 5379 5387 5392 5408 5426 5439 5450 5460 5470 5479 5482 5485
5180 5174 5169 5164 5160 5157 5155 5155 5155 5158 5162 5168 5176 5185 5195 5208 5221 5235 5250 5265 5281 5297 5311 5324 5338 5352 5365 5374 5381 5392 5408 5425 5437 5445 5451 5457 5462 5467
5182 5176 5171 5166 5162 5159 5156 5155 5156 5158 5161 5166 5174 5182 5192 5204 5216 5229 5243 5258 5273 5288 5302 5315 5327 5340 5351 5362 5372 5379 5391 5405 5419 5431 5438 5445 5448 5450
5183 5178 5173 5168 5164 5161 5159 5157 5157 5159 5162 5166 5172 5180 5189 5200 5211 5224 5237 5251 5265 5279 5293 5306 5318 5331 5344 5355 5362 5368 5376 5387 5397 5408 5420 5433 5442 5443
5183 5179 5174 5170 5167 5164 5161 5159 5158 5160 5162 5166 5171 5178 5186 5196 5207 5219 5231 5245 5258 5271 5284 5297 5309 5320 5330 5340 5349 5357 5364 5373 5382 5391 5398 5409 5421 5426